Regional Weather Roundup
Issued by NWS Goodland, KS

Home | Current Version | Previous Version | Text Only | Print | Product List | Glossary On
Versions: 1 2 3 4 5 6 7 8 9 10 11 12 13 14 15 16 17 18 19 20 21 22 23 24 25 26 27 28 29 30 31 32 33 34 35 36 37 38 39 40 41 42 43 44 45 46 47 48 49 50
000
ASUS43 KGLD 192308
RWRGLD

GOODLAND FORECAST AREA HOURLY WEATHER ROUNDUP
NATIONAL WEATHER SERVICE GOODLAND KS
500 PM MDT SUN APR 19 2015

...OFFICIAL OBSERVATIONS...

CITY           SKY/WX    TMP DP  RH WIND       PRES   REMARKS
GOODLAND KS    CLOUDY    48  25  40 N21G28    29.98S
HILL CITY KS   PTSUNNY   55  27  34 N21G32    29.91S
IMPERIAL NEB   PTSUNNY   50  23  34 N23G31    29.96F
MCCOOK NEB     CLOUDY    54  24  31 N30G36    29.92F
AKRON CO       PTSUNNY   46  21  37 N28G36    30.02S
BURLINGTON CO  MOSUNNY   50  22  33 N22G38    30.00S
LIMON CO       MOSUNNY   49  23  36 N26G35    30.02S
$$

...UNOFFICIAL OBSERVATIONS...

CITY           SKY/WX    TMP DP  RH WIND       PRES   REMARKS
COLBY KS       CLOUDY    54  30  40 NW29      29.96S
GOVE KS          N/A     55  32  41 MISG        N/A
LENORA KS        N/A     53  32  45 MISG        N/A
NORTON KS      CLOUDY    54  21  28 NW14G30   29.90S
SHARON SPRINGS   N/A     50  30  45 MISG        N/A
TRIBUNE KS     MOSUNNY   54  32  43 NW28G33   30.00F
KIT CARSON CO    N/A     49  29  46 MISG        N/A
YUMA CO          N/A     49  24  37 NW18G32     N/A
$$



USA.gov is the U.S. government's official web portal to all federal, state and local government web resources and services.